Theta_e
285 285 285 285 285 285 285 285 285 285 285 284 284 284 284 284 284 284 284 284 284 284 284 284 284 285 285 285 285 286 286 287 287 287 287 287 287 287 288 288 288 288 288 288 288 288 288 288 289 289 289 289 289 289 289 290 290 290 290 291 291 291 291 291 292 292 292 292 293 293 293 293 293 293 293 294 294 294 294 294 294 294 295 295 295 295
285 285 285 285 285 285 285 285 285 284 284 284 284 284 284 284 284 284 284 284 284 284 284 284 285 285 285 285 286 286 286 287 287 287 287 287 287 287 287 287 287 287 288 288 288 288 288 288 288 288 289 289 289 289 289 289 290 290 290 290 291 291 291 291 291 291 291 292 292 292 292 292 292 292 292 292 292 293 293 293 293 294 294 294 294 294
285 285 285 285 285 285 285 284 284 284 284 284 284 284 284 284 284 284 284 284 284 284 284 285 285 285 286 286 286 286 286 286 286 286 286 286 286 287 287 287 287 287 287 287 287 288 288 288 288 288 288 288 289 289 289 289 290 290 290 290 290 290 290 291 291 291 291 291 291 291 291 291 291 291 291 291 291 291 292 292 292 292 293 293 293 293
285 285 285 285 285 284 284 284 284 284 284 284 284 284 284 284 284 284 284 284 284 284 285 285 285 286 286 286 286 285 285 285 285 286 286 286 286 286 286 287 287 287 287 287 287 287 287 288 288 288 288 288 289 289 289 289 290 290 290 290 290 290 290 290 290 290 290 290 290 290 290 290 290 290 290 291 291 291 291 291 291 292 292 292 292 293
285 285 285 285 284 284 284 284 284 284 284 284 284 284 284 284 284 284 284 284 285 285 285 285 286 286 286 286 285 285 284 285 285 285 285 286 286 286 286 286 286 286 287 287 287 287 287 287 288 288 288 288 289 289 289 289 289 289 289 289 289 289 289 289 289 289 289 290 290 290 290 290 290 290 290 290 290 290 291 291 291 291 292 292 292 292
285 285 285 285 285 285 285 284 284 284 284 284 284 284 284 284 284 285 285 285 285 285 286 286 286 286 285 285 284 284 284 284 285 285 285 285 285 285 285 286 286 286 286 286 287 287 287 287 288 288 288 288 288 289 289 289 289 289 289 289 289 289 289 289 289 289 289 289 289 289 289 289 289 289 290 290 290 290 290 291 291 291 291 292 292 292
285 285 285 285 285 285 285 285 285 284 284 284 284 284 285 285 285 285 285 285 286 286 286 286 285 285 284 284 284 284 284 284 284 284 284 284 284 285 285 285 285 286 286 286 286 287 287 287 287 288 288 288 288 288 288 288 288 288 288 288 288 288 288 288 288 288 288 288 289 289 289 289 289 289 289 289 290 290 290 290 291 291 291 291 292 292
285 285 285 285 285 285 285 285 284 284 284 284 284 285 285 285 285 285 286 286 286 286 285 285 284 284 284 284 284 284 284 284 284 284 284 284 284 284 284 285 285 285 286 286 286 287 287 287 287 287 288 288 288 288 288 288 287 287 288 288 288 288 288 288 288 288 288 288 288 288 288 288 289 289 289 289 289 290 290 290 290 291 291 291 291 292
286 286 285 285 285 285 285 284 284 284 284 285 285 285 285 285 286 286 286 286 285 285 284 284 284 284 284 284 284 284 284 284 283 284 284 284 284 284 284 285 285 285 286 286 286 286 287 287 287 287 287 287 287 287 287 287 287 287 287 287 287 287 287 287 287 287 288 288 288 288 288 288 288 289 289 289 289 290 290 290 290 291 291 291 292 292
286 285 285 285 285 285 285 284 284 285 285 285 285 285 286 286 286 286 285 285 284 284 284 284 284 284 284 284 284 284 283 283 283 284 284 284 284 284 285 285 285 285 285 286 286 286 286 286 286 286 286 286 286 286 286 286 286 286 286 286 287 287 287 287 287 287 287 287 288 288 288 288 289 289 289 289 290 290 290 290 290 291 291 291 292 292
285 285 285 285 285 285 285 285 285 285 285 286 286 286 286 286 286 285 284 284 283 283 284 284 284 284 283 283 283 283 283 283 283 283 284 284 284 284 284 285 285 285 285 285 286 286 285 285 285 285 285 285 285 285 285 286 286 286 286 286 286 286 286 286 287 287 287 287 288 288 288 289 289 289 289 289 290 290 290 290 290 291 291 291 291 292
285 285 285 285 285 285 285 285 285 286 286 286 286 286 285 285 284 284 283 283 283 283 283 283 283 283 283 283 283 283 283 283 283 284 284 284 284 284 284 284 285 285 285 285 285 285 284 284 284 284 285 285 285 285 285 285 285 285 285 285 286 286 286 286 287 287 287 288 288 288 289 289 289 289 289 289 290 290 290 290 290 290 291 291 291 291
285 285 285 285 285 285 286 286 286 286 286 285 285 284 283 283 283 283 283 283 283 283 283 283 283 283 283 283 283 283 283 284 284 284 284 284 284 284 284 285 285 284 284 284 284 284 283 283 284 284 284 284 284 284 284 284 284 284 285 285 285 286 286 287 287 287 288 288 288 288 288 289 289 289 289 289 289 290 290 290 290 290 290 291 291 291
286 286 286 286 286 286 286 286 286 285 285 284 284 283 283 283 283 283 283 283 283 283 283 283 283 283 283 283 284 284 284 284 284 284 284 284 285 285 285 285 284 284 284 284 283 283 283 283 283 283 283 283 283 283 283 283 284 284 285 285 286 286 286 287 287 287 288 288 288 288 288 288 289 289 289 289 289 289 290 290 290 290 290 290 290 291
286 286 286 286 285 285 285 285 285 284 284 283 283 283 283 283 283 283 283 283 283 283 283 283 283 283 284 284 284 284 284 284 284 284 285 285 285 285 284 284 284 284 283 283 283 283 283 283 283 283 283 283 283 283 283 283 284 284 285 285 286 286 286 287 287 287 287 288 288 288 288 288 289 289 289 289 289 289 289 289 290 290 290 290 290 290
286 286 286 285 285 285 284 284 284 283 283 283 283 283 283 283 283 283 283 283 283 283 283 283 284 284 284 284 284 284 285 285 285 285 285 284 284 284 284 284 283 283 283 283 283 282 282 282 282 282 282 282 282 283 283 284 284 285 285 285 286 286 286 286 287 287 287 287 288 288 288 288 288 289 289 289 289 289 289 289 289 289 289 290 290 290
286 285 285 285 285 284 284 284 283 283 283 283 283 283 283 283 283 283 283 283 283 283 283 284 284 284 284 284 285 285 285 285 285 284 284 284 284 284 283 283 283 283 282 282 282 282 282 282 282 282 282 282 282 283 283 284 284 285 285 285 286 286 286 286 286 287 287 287 288 288 288 288 288 288 288 289 289 289 289 289 289 289 289 289 289 289
285 285 285 284 284 284 284 283 283 283 283 283 283 283 283 283 283 283 283 283 283 283 284 284 284 284 285 285 285 285 285 284 284 284 284 283 283 283 283 283 282 282 282 282 282 282 282 282 282 282 282 282 283 283 284 284 284 285 285 285 285 286 286 286 286 287 287 287 287 288 288 288 288 288 288 288 288 289 289 289 289 289 289 289 289 290
285 285 284 284 284 284 283 283 283 283 283 283 283 283 283 283 283 283 283 283 284 284 284 284 284 285 285 285 285 284 284 284 283 283 283 283 283 282 282 282 282 282 282 282 282 282 282 282 282 282 282 282 283 283 283 284 284 284 285 285 285 286 286 286 286 287 287 287 287 287 288 288 288 288 288 288 288 288 289 289 289 289 289 289 290 290
285 285 284 284 284 283 283 283 283 283 283 283 283 283 283 283 283 283 284 284 284 284 284 284 285 285 285 285 284 284 283 283 283 282 282 282 282 282 282 282 282 282 281 281 282 282 282 282 282 282 282 282 282 283 283 283 284 284 285 285 285 285 286 286 286 286 286 287 287 287 287 287 288 288 288 288 288 288 289 289 289 289 289 289 290 290
285 284 284 284 283 283 283 283 283 283 283 283 283 283 283 283 284 284 284 284 284 285 285 285 285 284 284 283 283 283 283 282 282 282 282 282 282 282 282 281 281 281 281 281 281 281 281 282 282 282 282 282 282 283 283 284 284 284 285 285 285 285 286 286 286 286 286 286 287 287 287 287 287 288 288 288 288 288 289 289 289 289 289 289 289 289
285 284 284 284 283 283 283 283 283 283 283 283 283 283 283 284 284 284 284 284 284 284 284 284 283 283 283 283 282 282 282 282 282 281 281 281 281 281 281 281 281 281 281 281 281 281 281 282 282 282 282 282 282 283 283 283 284 284 284 285 285 285 285 286 286 286 286 286 286 287 287 287 287 287 288 288 288 288 288 288 288 288 288 289 289 289
284 284 284 284 283 283 283 283 283 283 283 283 283 283 284 284 284 284 284 284 284 283 283 283 282 282 282 282 282 282 282 281 281 281 281 281 281 281 281 281 281 281 281 281 281 282 282 282 282 282 282 282 282 283 283 283 284 284 284 284 285 285 285 285 285 286 286 286 286 286 286 287 287 287 287 287 287 288 288 288 288 288 288 288 289 289
284 284 284 283 283 283 283 283 283 284 284 284 284 285 285 285 284 284 284 283 283 282 282 282 282 282 282 282 281 281 281 281 281 281 281 281 281 281 281 281 281 281 281 281 281 281 282 282 282 282 282 282 282 282 283 283 283 284 284 284 284 285 285 285 285 285 285 286 286 286 286 286 286 287 287 287 287 287 287 288 288 288 288 288 288 289
284 284 284 284 284 284 284 285 285 285 286 286 286 286 285 284 284 283 282 282 282 282 282 282 282 282 281 281 281 281 281 281 281 281 281 281 281 281 281 281 281 281 281 281 281 281 282 282 282 282 282 282 282 282 283 283 283 283 284 284 284 284 284 285 285 285 285 286 286 286 286 286 286 286 286 287 287 287 287 287 288 288 288 288 288 288
284 285 285 285 285 285 286 286 286 286 286 286 285 284 283 283 283 282 282 282 282 282 282 282 282 281 281 281 281 281 281 281 281 281 281 281 281 281 281 281 281 281 281 281 281 282 282 282 282 282 282 282 282 282 282 282 283 283 283 283 284 284 284 285 285 285 285 285 285 285 285 286 286 286 286 286 287 287 287 287 287 288 288 288 288 288
284 285 285 285 285 285 285 285 285 284 284 284 283 283 283 283 282 282 282 282 282 282 282 281 281 281 281 281 281 281 281 281 281 281 281 281 281 281 281 281 281 281 281 281 282 282 282 282 282 282 282 282 282 282 282 282 282 283 283 283 284 284 284 284 284 284 285 285 285 285 285 285 286 286 286 286 286 287 287 287 287 288 288 288 288 288
284 284 284 284 284 284 284 284 283 283 282 282 282 282 282 282 282 282 282 282 281 281 281 281 281 281 281 281 281 281 281 281 281 281 281 281 281 281 281 281 281 281 281 281 281 281 282 282 282 282 282 282 282 282 282 282 282 283 283 283 283 283 283 284 284 284 284 284 285 285 285 285 285 286 286 286 286 286 287 287 287 287 287 287 287 287
284 283 283 283 283 282 282 282 281 281 281 281 281 282 282 282 282 281 281 281 281 281 281 281 281 281 281 281 281 281 281 281 281 281 281 281 281 281 281 281 281 281 281 281 281 281 281 282 282 282 282 282 282 282 282 282 282 282 282 282 282 283 283 283 283 284 284 284 284 285 285 285 285 285 286 286 286 286 286 287 287 287 287 287 287 287
282 282 282 281 281 281 281 281 280 281 281 281 281 281 281 281 281 281 281 280 281 281 281 281 281 281 281 281 281 281 281 281 281 281 281 281 281 281 281 281 281 281 281 281 281 281 281 282 282 282 282 282 282 282 282 282 282 282 282 282 282 282 282 283 283 283 284 284 284 284 285 285 285 285 285 285 286 286 286 286 286 287 287 287 287 287
281 281 281 281 281 281 281 281 281 280 280 281 281 281 281 280 280 280 280 280 280 281 281 281 281 281 281 281 281 281 281 281 281 281 280 280 280 281 281 281 281 281 281 281 281 281 281 281 282 282 282 282 282 282 282 282 282 282 282 282 282 282 282 282 283 283 283 284 284 284 284 285 285 285 285 285 285 285 286 286 286 286 286 286 286 286
281 281 281 281 281 281 281 281 281 280 280 280 280 280 280 280 280 280 280 280 281 281 281 281 281 281 281 281 281 281 281 281 280 280 280 280 281 281 281 281 281 281 281 281 281 281 281 281 281 281 282 282 282 282 282 282 282 282 282 282 282 282 282 282 283 283 283 283 283 284 284 284 284 284 284 285 285 285 285 286 286 286 286 286 286 286
281 281 281 281 281 281 281 281 281 281 280 280 280 280 280 280 280 280 280 280 281 281 281 281 281 281 281 280 280 280 280 280 280 280 280 281 281 281 281 281 281 281 281 281 281 281 281 281 281 281 282 282 282 282 282 282 282 282 282 282 282 282 282 282 282 283 283 283 283 283 283 283 284 284 284 284 284 285 285 285 285 286 286 286 286 286
281 280 281 281 281 281 281 281 281 281 281 281 280 280 280 280 280 280 280 280 280 280 280 280 280 280 280 280 280 280 280 280 280 280 280 281 281 281 281 281 281 281 281 281 281 281 281 281 281 281 282 282 282 282 282 282 282 282 282 282 282 282 282 282 282 282 282 282 283 283 283 283 283 283 283 284 284 284 284 285 285 285 286 286 286 286
281 281 281 281 281 281 281 281 281 281 281 281 281 280 280 280 280 280 280 280 280 280 280 280 280 280 280 280 280 280 280 280 280 280 280 280 280 281 281 281 281 281 281 281 281 281 281 281 281 282 282 282 282 282 282 282 282 282 282 282 282 282 282 282 282 282 282 282 283 283 283 283 283 283 283 283 283 284 284 284 285 285 286 286 286 286
281 281 281 281 281 281 281 281 281 281 281 280 280 280 280 280 280 280 280 280 280 280 280 280 280 280 280 280 280 280 280 280 280 280 280 280 280 280 280 281 281 281 281 281 281 281 281 281 281 281 282 282 282 282 282 282 282 282 282 282 282 282 282 282 282 282 282 283 283 283 283 283 283 283 283 283 283 284 284 285 285 285 286 286 286 286
281 281 281 281 281 281 281 281 281 280 280 280 280 280 280 280 280 280 280 280 280 280 280 280 280 280 280 280 280 280 280 280 280 280 280 280 280 280 280 280 280 281 281 281 281 281 281 281 281 281 281 282 282 282 282 282 282 282 282 282 282 282 282 282 282 282 283 283 283 283 283 283 283 283 283 284 284 284 284 285 285 285 285 285 286 286
281 281 281 281 281 280 280 280 280 280 280 280 280 280 280 280 280 280 280 280 280 280 280 279 279 280 280 280 280 280 280 280 280 280 280 280 280 280 280 280 280 280 281 281 281 281 281 281 281 281 281 281 282 282 282 282 282 282 282 282 282 282 282 282 283 283 283 283 283 283 283 284 284 284 284 284 284 284 284 284 284 284 284 285 285 285
281 281 280 280 280 280 280 280 280 280 280 280 280 280 280 280 280 280 280 280 280 279 279 279 279 279 279 279 279 280 280 280 280 280 280 280 280 280 280 280 280 280 280 281 281 281 281 281 281 281 281 281 282 282 282 282 282 282 282 282 282 282 282 283 283 283 283 283 283 284 284 284 284 284 284 284 284 284 284 284 284 284 284 284 284 284
280 280 280 280 280 280 280 280 280 280 280 280 280 280 280 280 280 280 279 279 279 279 279 279 279 279 279 279 279 280 280 280 280 280 280 280 280 280 280 280 280 280 280 280 281 281 281 281 281 281 281 281 281 282 282 282 282 282 282 282 283 283 283 283 283 283 283 283 283 283 284 284 284 284 284 284 284 284 284 284 284 284 284 284 284 284
280 280 280 280 280 280 280 280 280 280 280 280 280 280 279 279 279 279 279 279 279 279 279 279 279 279 279 279 279 280 280 280 280 280 280 280 280 280 280 280 280 280 280 280 280 281 281 281 281 281 281 281 281 282 282 282 282 282 282 282 283 283 283 283 283 283 283 283 283 284 284 284 284 284 284 284 284 284 284 284 284 284 284 284 284 284
280 280 280 280 279 279 279 279 279 279 279 279 279 279 279 279 279 279 279 279 279 279 279 279 279 279 280 280 279 280 280 280 280 280 280 280 280 280 280 280 280 280 280 280 280 280 281 281 281 281 281 281 281 282 282 282 282 282 282 282 283 283 283 283 283 283 283 283 283 284 284 284 284 284 284 284 284 284 284 284 284 284 284 284 284 284
279 279 279 279 279 279 279 279 279 279 279 279 279 279 279 279 279 279 279 279 279 279 279 279 279 280 280 280 280 280 280 280 280 280 280 280 280 280 280 280 280 280 280 280 280 281 281 281 281 281 281 281 282 282 282 282 282 282 282 282 282 283 283 283 283 283 283 283 284 284 284 284 284 284 284 284 284 284 284 284 284 284 284 285 285 285
279 279 279 279 279 279 279 279 279 279 279 279 279 279 279 279 279 279 279 279 279 279 279 279 279 279 280 280 280 280 280 280 280 280 280 280 280 281 281 281 281 281 281 281 281 281 281 281 281 281 281 282 282 282 282 282 282 282 282 282 283 283 283 283 283 283 283 284 284 284 284 284 284 284 284 284 284 284 284 284 284 284 284 284 285 285
279 279 279 279 279 279 279 279 279 279 279 279 279 279 279 279 279 279 279 279 279 279 279 279 280 280 280 280 280 280 280 280 280 280 280 280 281 281 281 281 281 281 281 281 281 281 281 281 281 282 282 282 282 282 282 282 282 282 282 283 283 283 283 283 283 283 283 284 284 284 284 284 284 284 284 284 284 284 284 284 284 285 285 285 285 285
279 279 279 279 279 279 279 279 279 279 279 279 279 279 279 279 279 279 279 279 279 279 279 280 280 280 280 280 280 280 280 280 280 280 280 280 281 281 281 281 281 281 281 281 281 281 281 281 282 282 282 282 282 282 282 282 282 282 283 283 283 283 283 283 283 283 283 284 284 284 284 284 284 284 284 284 285 285 285 285 285 285 285 285 285 285
279 279 279 279 278 278 278 278 278 278 279 279 279 279 279 279 279 279 279 279 279 279 280 280 280 280 280 280 280 280 280 280 280 280 281 281 281 281 281 281 281 281 281 281 281 282 282 282 282 282 282 282 282 282 282 282 282 283 283 283 283 283 283 283 283 283 283 284 284 284 284 284 284 284 285 285 285 285 285 285 285 285 285 285 285 285
279 279 278 278 278 278 278 278 278 278 278 278 279 279 279 279 279 279 279 279 279 279 279 280 280 280 280 280 280 280 280 280 280 281 281 281 281 281 281 281 281 282 282 282 282 282 282 282 282 282 282 282 282 282 282 282 283 283 283 283 283 283 283 283 283 284 284 284 284 284 284 285 285 285 285 285 285 285 285 285 285 285 285 285 285 285
278 278 278 278 278 278 278 278 278 278 278 278 279 279 279 279 279 279 279 279 279 279 279 279 279 280 280 280 280 280 280 280 281 281 281 281 281 281 281 282 282 282 282 282 282 282 282 282 282 282 282 282 282 282 282 283 283 283 283 283 283 283 284 284 284 284 284 285 285 285 285 285 285 285 285 285 285 285 285 285 285 285 285 285 285 285
278 278 278 278 278 278 278 278 278 278 278 278 278 279 279 279 279 279 279 279 279 279 279 279 279 280 280 280 280 280 280 280 281 281 281 281 281 281 281 282 282 282 282 282 282 282 282 282 283 283 283 283 283 283 283 283 283 283 283 284 284 284 284 284 285 285 285 285 285 285 285 285 285 285 285 285 285 285 285 285 285 285 285 285 285 285
278 278 278 278 278 278 278 278 278 278 278 278 278 279 279 279 279 279 279 279 279 279 279 279 279 280 280 280 280 280 280 281 281 281 281 281 281 281 281 282 282 282 282 282 282 282 283 283 283 283 283 283 284 284 284 284 284 284 284 284 285 285 285 285 285 285 285 285 285 285 285 285 285 285 285 285 285 285 285 285 285 285 285 285 285 285
Wind_Speed
18 20 20 20 20 20 20 20 21 23 25 26 27 27 27 27 27 28 28 28 28 28 28 27 27 27 27 27 26 26 25 25 26 26 26 26 26 26 26 26 26 27 27 27 27 27 27 27 27 27 27 27 27 27 27 27 27 27 27 27 27 27 27 27 27 27 27 27 27 27 27 27 26 26 26 26 26 26 26 26 26 26 27 28 28 29
19 19 19 18 18 19 20 21 21 23 24 26 27 27 28 28 28 28 28 27 27 27 27 27 27 27 27 27 26 26 25 25 25 25 26 26 26 26 27 27 27 27 27 28 28 28 28 27 27 27 27 27 27 27 27 27 27 27 27 27 27 27 27 27 27 27 27 27 27 27 27 27 26 26 26 26 26 26 26 26 26 27 27 27 27 28
19 18 18 18 18 19 20 21 22 23 24 26 27 27 28 29 29 28 27 26 26 26 26 26 26 26 26 26 26 25 25 24 25 25 25 26 26 27 27 28 28 28 28 28 28 28 28 27 27 27 27 27 27 27 27 27 27 27 27 27 27 27 27 27 27 27 27 27 27 27 27 27 27 27 27 27 27 28 28 28 28 28 28 28 28 28
18 18 19 19 19 19 20 21 22 23 24 25 26 27 28 28 27 27 26 26 26 26 26 25 25 25 25 25 25 25 24 24 24 25 26 26 27 27 28 28 28 28 28 28 28 28 28 28 27 27 27 27 27 27 27 28 28 28 28 28 28 28 28 28 28 28 28 27 27 27 27 27 27 27 27 27 27 28 28 28 29 29 29 29 29 30
17 18 19 19 20 20 20 21 22 23 24 25 26 26 26 26 26 26 26 25 25 25 25 24 24 24 24 25 25 24 24 24 25 25 26 27 27 28 28 28 28 28 28 28 28 28 28 28 28 28 28 28 28 28 28 28 28 28 28 29 29 29 28 28 28 28 27 27 27 27 27 26 26 27 27 27 27 27 27 28 28 28 29 29 30 30
18 18 19 19 19 20 21 21 22 23 24 24 25 25 25 25 25 25 24 24 24 23 23 23 23 23 23 24 24 24 24 24 25 26 26 27 27 28 28 28 27 27 27 27 28 28 28 28 28 28 28 28 28 28 28 29 29 29 29 29 29 29 28 28 27 27 26 26 26 26 26 26 26 26 26 26 26 26 26 27 27 27 28 28 29 29
19 19 19 19 19 20 20 21 21 22 23 24 25 25 24 24 23 23 23 22 22 22 23 23 23 22 23 23 24 24 25 25 26 26 26 27 27 27 27 27 27 27 27 27 27 28 28 28 28 28 28 28 29 29 29 29 30 30 30 30 29 28 28 27 27 26 26 26 25 25 25 25 25 25 26 26 26 26 26 26 26 27 27 28 28 28
19 19 19 19 20 20 21 21 21 22 24 25 25 25 24 23 21 21 21 21 21 21 21 22 22 22 22 23 24 25 25 26 26 26 26 26 26 26 26 26 26 27 27 27 27 27 27 28 28 28 29 29 29 30 30 30 30 30 30 29 28 28 27 26 26 26 26 26 25 25 25 25 25 25 26 26 26 26 26 26 26 27 27 27 28 28
18 19 20 20 20 21 22 22 22 23 24 25 24 23 22 21 20 19 19 19 19 20 21 22 23 23 23 24 24 25 25 25 25 25 26 26 26 27 27 27 26 26 26 27 27 27 27 28 28 29 29 30 30 31 31 31 30 30 29 28 27 27 26 26 26 26 26 26 26 26 26 26 26 26 26 26 26 26 27 27 27 27 28 28 28 28
18 20 21 21 20 20 21 22 24 24 24 24 22 20 19 19 19 19 20 20 20 21 21 22 23 24 24 24 24 25 25 25 25 25 25 26 26 26 27 26 26 26 26 26 26 27 28 28 29 29 30 31 31 31 30 30 29 28 28 27 27 26 26 26 26 26 26 26 26 26 26 26 26 26 27 27 27 27 28 28 28 28 29 29 29 29
19 20 21 21 20 20 19 21 22 23 22 20 18 16 15 16 18 20 21 22 23 23 22 22 22 23 24 25 25 25 25 25 26 26 25 26 26 26 25 25 24 24 25 25 26 27 28 29 29 30 30 30 30 30 29 28 28 27 27 27 26 26 26 26 26 26 26 26 26 27 27 27 27 27 28 28 28 28 28 29 29 29 29 29 29 29
20 20 19 18 18 18 18 19 19 19 17 16 15 16 17 18 19 20 22 23 23 24 23 23 23 23 24 25 25 25 25 25 25 25 25 25 25 25 24 24 23 24 25 26 27 28 29 29 29 30 30 29 29 28 27 27 27 27 27 27 27 26 26 26 26 26 27 27 27 27 27 28 28 28 28 28 28 28 29 29 29 29 29 29 29 30
19 18 16 16 16 16 16 16 17 16 15 15 16 18 19 20 21 21 21 22 22 23 23 24 24 24 24 24 25 24 24 24 24 24 24 23 23 23 23 23 23 24 26 27 28 29 29 29 29 29 28 28 28 27 27 27 27 27 27 27 26 26 26 27 27 27 28 28 28 28 28 28 28 28 28 29 29 29 29 29 29 29 29 29 29 30
17 15 14 14 15 15 16 16 16 16 17 18 19 19 20 21 21 21 21 21 22 22 23 24 24 24 24 24 23 23 23 23 23 22 22 22 22 22 23 23 24 26 27 28 29 29 29 28 28 28 28 28 28 27 27 27 27 27 27 27 27 27 27 28 28 28 29 29 29 29 29 29 29 29 29 29 29 29 29 29 29 29 29 29 29 29
13 13 14 15 16 17 18 18 18 18 19 20 20 21 21 21 20 20 20 20 21 22 23 24 24 24 23 22 21 21 21 21 21 21 21 21 22 23 24 25 25 26 27 28 28 29 28 28 28 28 29 29 29 28 27 27 27 27 27 27 28 28 28 29 29 29 29 29 29 29 29 29 29 29 29 30 29 29 29 29 29 29 29 29 29 29
12 14 14 16 17 18 18 18 19 19 20 20 20 20 20 19 19 19 19 20 22 22 22 22 22 22 23 22 20 19 19 19 19 20 21 22 24 24 24 25 26 27 27 27 28 28 28 27 27 28 28 28 28 27 27 27 27 28 28 29 29 29 29 29 29 29 29 30 30 30 30 30 30 30 30 30 30 29 29 29 29 29 29 29 29 29
14 15 15 15 17 18 19 19 19 19 20 20 19 19 18 19 19 20 20 21 21 21 20 19 15 13 15 21 21 19 19 19 19 20 22 24 26 26 25 25 26 27 27 27 27 27 27 26 27 27 28 28 27 27 27 28 28 29 29 30 30 30 30 30 30 30 30 30 30 30 30 30 30 30 30 30 30 29 29 29 29 29 29 29 29 29
16 17 17 17 17 18 19 19 19 19 19 19 19 19 19 20 20 21 21 22 21 20 19 19 16 12 10 16 20 21 20 20 21 22 24 26 27 27 26 25 25 26 26 26 26 26 26 26 26 27 27 27 27 28 28 29 29 30 30 30 30 30 30 30 30 30 30 30 30 30 30 30 30 30 30 30 29 29 29 29 28 28 28 29 29 29
18 18 18 18 18 19 19 19 19 19 18 18 19 20 20 21 21 22 22 22 21 20 19 18 17 17 16 18 21 23 22 22 22 24 25 27 28 27 25 24 24 24 25 25 25 25 25 26 27 28 28 28 28 29 29 29 30 30 30 30 30 30 30 30 30 30 31 31 31 31 30 30 30 30 30 30 29 29 29 29 29 29 29 29 29 29
19 19 18 19 19 19 19 19 20 19 19 19 20 21 21 22 23 23 22 21 20 19 17 16 16 17 18 20 23 25 25 24 24 24 25 26 26 26 24 23 23 23 24 25 25 25 25 26 27 28 29 29 29 29 29 30 30 30 31 31 31 31 31 31 31 31 31 31 31 31 31 30 30 30 30 30 29 29 30 30 30 30 30 29 29 29
20 20 19 19 19 19 19 20 20 20 21 22 22 23 23 23 23 22 21 19 17 16 15 14 16 19 21 24 26 27 26 24 23 23 23 24 24 24 23 22 22 23 24 25 25 25 25 26 27 28 29 29 29 29 30 30 31 31 31 32 32 32 32 32 32 31 31 31 31 31 31 30 30 30 30 30 30 30 30 30 31 30 30 30 29 29
20 21 20 20 20 20 20 21 22 23 24 25 24 24 24 23 21 20 18 16 15 15 16 18 20 23 25 27 28 28 27 24 22 21 21 20 21 23 22 21 21 22 23 24 25 25 25 26 27 28 29 29 30 30 30 31 31 31 32 32 32 32 32 32 32 32 31 31 31 31 31 31 31 31 31 31 30 30 31 30 30 30 30 29 29 29
20 21 21 21 21 21 22 23 25 26 26 27 26 25 24 22 20 18 17 16 17 19 22 24 25 26 26 26 27 27 25 23 22 20 19 15 18 22 22 21 21 22 23 24 25 25 25 26 27 28 29 29 30 30 30 31 31 32 32 32 32 32 32 32 32 31 31 31 31 31 31 31 31 31 31 31 31 31 30 30 30 30 29 29 29 29
20 21 22 22 22 23 24 25 26 26 26 26 25 24 22 19 18 19 20 21 23 24 25 25 25 25 24 24 24 24 24 22 20 19 17 16 18 21 22 22 21 22 24 25 25 25 25 26 27 27 28 29 29 30 30 31 31 32 32 32 32 32 32 32 31 31 31 31 31 32 32 32 32 32 32 32 31 31 30 30 30 29 29 29 29 29
22 22 22 23 23 24 24 24 24 25 25 24 23 21 21 22 23 25 26 26 24 24 23 22 21 21 22 22 22 23 23 21 19 18 17 16 19 22 23 22 21 22 24 25 25 25 25 26 26 27 28 29 29 30 30 31 31 31 31 31 32 32 32 31 31 31 32 32 32 32 32 32 32 32 32 32 31 31 30 30 29 29 29 29 29 29
21 22 22 22 23 23 24 24 24 25 25 25 25 25 26 25 25 25 25 23 21 20 19 18 17 18 21 21 21 22 22 21 19 18 17 17 19 21 23 22 21 22 24 25 25 24 24 25 26 27 28 29 29 30 30 30 30 30 31 31 31 31 31 32 32 32 32 32 33 33 32 32 32 32 31 31 31 30 30 30 29 29 29 29 29 29
21 21 21 22 22 22 22 23 23 24 24 24 23 23 22 22 21 21 20 19 18 17 16 15 14 15 19 19 19 21 22 22 20 19 18 18 19 20 22 22 21 22 24 25 25 24 24 25 26 27 28 29 29 29 29 29 29 29 30 30 31 31 32 32 32 33 33 33 32 32 32 32 31 31 31 31 31 30 30 30 30 29 29 29 29 28
19 19 19 19 19 20 21 22 22 23 23 23 22 21 20 20 18 17 17 18 18 17 17 15 13 12 14 16 19 22 24 23 21 20 19 18 17 18 21 21 21 22 23 24 26 26 25 25 25 26 27 27 28 28 28 28 28 28 29 30 31 32 32 32 32 32 32 32 32 31 31 31 31 31 31 31 31 30 30 30 30 29 29 28 27 27
16 17 17 18 19 20 21 22 22 22 21 20 20 19 18 17 17 17 18 19 19 18 17 17 16 14 15 18 21 23 24 23 21 19 18 16 16 18 21 21 21 21 22 23 25 26 24 23 23 24 25 25 25 26 26 27 28 29 30 31 31 32 32 31 31 31 31 31 31 31 31 31 31 31 31 31 30 30 30 30 29 29 28 27 26 26
17 18 20 21 22 22 22 22 21 20 19 19 18 17 17 17 17 18 19 19 19 18 17 17 17 17 17 18 17 17 19 21 20 17 16 15 16 18 21 21 21 22 21 19 16 16 19 22 22 21 22 23 24 25 26 27 28 29 30 30 31 31 31 30 30 30 30 31 31 31 31 31 31 30 30 30 30 30 30 29 29 28 26 26 26 27
21 23 23 24 23 22 21 20 20 19 19 19 18 18 17 18 18 19 19 19 18 17 17 18 18 18 17 14 9 7 9 19 21 18 17 16 17 19 21 21 21 22 21 16 8 4 10 16 20 22 21 23 24 26 27 28 28 28 29 29 30 30 30 30 30 30 30 30 30 30 30 30 30 30 30 30 30 30 30 29 28 27 26 26 25 25
24 24 23 23 22 21 20 19 19 19 20 20 19 19 18 18 18 18 18 18 18 18 18 18 18 19 19 16 11 9 12 21 24 21 19 18 19 20 21 20 21 22 22 20 15 10 8 8 16 24 24 24 25 26 27 27 28 28 29 29 30 30 30 30 29 29 29 29 29 29 30 30 30 30 30 30 30 30 29 29 28 27 26 25 25 24
23 22 22 21 20 20 19 19 19 20 20 20 19 19 19 18 17 17 17 17 18 18 18 19 19 20 20 20 19 19 23 26 25 23 21 19 19 20 21 21 21 22 23 23 22 20 15 14 19 25 26 25 25 25 26 26 27 27 28 29 30 30 30 30 29 29 29 29 29 29 30 29 29 29 29 29 29 29 29 29 28 27 26 25 24 24
22 21 20 20 19 19 19 19 20 19 19 19 19 18 18 18 18 18 18 18 18 19 19 20 20 20 20 20 21 23 26 27 26 23 21 20 19 20 22 22 22 22 22 22 22 22 21 22 23 23 24 25 26 25 25 26 26 27 28 28 29 30 30 29 29 29 29 29 29 29 29 29 29 29 29 29 28 28 28 27 27 26 26 25 24 24
20 19 19 19 19 19 19 19 19 19 18 18 18 18 18 18 18 19 19 19 19 19 20 20 20 21 21 20 21 23 26 28 27 24 22 21 21 22 23 23 23 22 21 21 21 20 20 23 24 23 22 24 25 26 26 25 26 27 28 28 28 29 29 29 29 29 29 29 29 29 29 29 29 29 29 28 28 27 27 27 27 26 26 26 26 25
18 18 18 18 18 18 19 19 19 18 18 18 18 18 19 19 19 20 20 20 21 21 21 21 22 23 23 23 24 25 27 29 29 27 25 23 23 23 23 24 24 23 21 21 21 20 19 21 23 25 23 21 21 23 26 26 26 26 27 28 28 28 29 29 29 28 28 28 28 29 29 28 28 28 28 28 28 27 27 28 28 28 28 27 28 27
17 17 17 17 17 18 18 18 18 18 19 19 19 19 20 20 20 21 21 22 22 23 23 23 24 24 25 25 26 28 29 30 30 29 28 27 26 25 24 25 26 25 23 22 22 22 21 20 21 22 21 19 18 20 24 27 27 27 28 28 28 28 28 28 28 28 27 27 27 28 28 27 27 27 27 28 28 28 28 28 28 28 28 28 28 28
16 17 17 17 17 17 18 18 19 19 19 19 20 21 21 22 22 22 22 23 23 24 24 24 24 25 26 26 28 30 32 32 33 33 33 32 30 29 27 27 26 25 24 23 23 23 22 17 14 13 13 17 21 24 25 26 27 28 29 29 28 28 28 28 27 26 26 26 27 27 27 27 27 27 27 28 28 28 28 29 29 28 28 27 27 28
16 17 17 17 17 17 17 18 19 19 20 21 21 22 22 23 23 23 23 23 23 23 23 24 24 26 27 29 30 30 31 32 33 33 34 33 32 31 28 27 26 26 26 25 25 24 23 19 15 12 10 15 21 25 26 27 27 28 29 29 29 28 27 26 26 25 25 26 26 27 27 27 27 27 28 28 28 28 28 28 28 28 27 27 27 27
16 17 17 18 18 18 18 19 20 20 21 22 22 22 22 22 22 23 23 23 23 23 24 24 25 26 26 27 27 28 29 30 32 32 32 33 32 31 29 28 27 27 26 26 25 25 24 23 22 23 22 20 21 23 25 27 28 28 28 26 25 26 27 27 27 27 27 26 26 26 27 27 27 27 27 27 27 27 27 27 28 28 27 26 26 26
17 17 18 18 19 19 19 20 20 21 21 21 22 22 21 21 22 22 23 24 24 23 23 23 24 25 26 27 27 27 27 29 29 30 30 31 31 31 31 29 28 27 27 26 25 25 25 24 25 25 26 25 25 26 26 28 29 29 28 25 25 27 30 29 28 27 26 26 26 26 26 27 27 27 27 27 27 28 28 28 29 29 29 28 26 25
17 17 18 19 19 20 20 20 21 21 21 20 20 20 21 21 21 22 22 23 23 23 23 23 23 24 26 26 27 26 26 27 27 28 28 29 29 29 30 30 29 28 27 26 26 26 26 25 25 25 26 25 24 24 25 28 30 29 28 27 27 29 29 29 28 27 25 25 26 26 26 26 27 27 27 28 29 29 29 29 30 29 28 27 27 26
18 18 19 20 20 20 20 20 20 20 20 20 20 20 21 21 21 21 22 22 23 24 24 23 23 23 24 26 27 27 27 27 26 26 26 27 27 28 28 29 30 29 28 26 25 25 26 26 26 25 26 26 25 24 25 28 30 30 29 29 27 24 21 25 28 28 26 26 26 26 26 27 27 28 28 28 29 29 30 30 30 30 29 29 28 28
18 19 19 20 20 20 20 20 20 20 20 21 21 21 22 22 21 21 22 22 23 23 23 23 23 23 23 24 26 27 27 27 26 26 25 25 26 26 27 28 28 29 28 26 25 25 25 26 26 27 27 26 25 25 26 27 28 29 30 29 28 25 23 25 28 29 28 28 28 27 27 27 28 29 29 28 29 29 29 29 29 30 30 30 30 30
18 19 19 19 19 19 20 20 20 20 20 21 21 22 22 22 21 21 22 22 23 23 23 22 22 21 21 23 24 25 27 27 27 26 26 25 25 24 25 26 27 27 27 27 26 25 24 25 26 27 27 26 25 25 26 27 27 28 29 29 28 28 29 30 29 28 27 28 28 28 28 28 28 27 28 28 28 27 27 26 26 27 28 28 29 29
17 18 19 19 19 19 20 20 20 21 21 21 22 22 22 22 22 21 22 22 22 22 23 22 20 19 19 22 23 24 25 26 27 28 27 26 26 25 25 25 25 26 26 27 27 27 26 26 27 28 27 26 26 27 28 27 27 27 28 29 29 28 28 29 29 28 28 28 28 29 29 28 27 26 26 27 28 27 26 26 25 26 27 27 28 29
17 18 18 19 19 19 20 20 20 20 21 21 22 22 22 22 22 22 22 22 21 21 22 22 20 20 20 21 22 22 23 24 26 28 28 28 28 27 27 26 25 25 26 26 27 27 28 29 29 28 26 25 25 26 29 29 28 27 28 28 28 27 27 28 29 29 28 28 28 29 29 28 27 26 26 26 27 27 27 27 26 27 27 27 28 29
17 18 18 19 19 19 20 20 20 20 21 22 22 22 22 22 21 21 21 22 21 21 21 21 20 20 21 22 22 22 22 23 24 26 27 27 28 28 27 27 26 26 26 26 27 27 28 29 30 30 28 26 24 25 28 30 29 28 28 28 27 26 27 28 30 30 28 28 28 28 27 26 24 23 24 25 26 27 28 28 27 27 27 27 28 29
17 18 18 18 18 19 20 20 20 20 21 22 22 23 23 23 22 21 21 21 21 20 20 20 20 20 21 22 23 23 24 24 24 25 25 26 26 26 27 27 27 27 27 27 27 28 28 28 29 29 28 27 27 26 28 29 30 29 29 28 27 26 26 27 29 29 28 27 27 27 26 24 23 23 23 24 25 27 28 29 28 28 27 27 28 29
18 18 18 18 18 19 20 20 20 21 21 22 22 23 23 23 23 22 21 21 21 20 20 20 20 20 21 22 23 23 23 23 23 24 25 25 25 25 26 26 26 26 26 27 27 26 26 25 25 25 25 25 26 27 27 28 29 29 29 28 27 26 26 26 27 28 26 25 25 25 25 25 25 24 24 24 25 27 28 28 28 28 26 26 27 28
18 18 18 18 18 19 20 20 21 21 21 22 22 22 23 23 23 23 22 21 21 20 20 20 20 20 21 22 22 23 23 23 23 23 25 25 25 24 24 24 24 24 23 22 21 20 18 16 17 20 22 22 22 23 25 27 27 27 26 27 27 26 25 26 26 26 26 25 25 25 25 25 25 25 24 23 22 23 24 26 27 27 26 25 25 26
Wind_Direction
302 304 306 307 307 307 306 307 308 309 309 309 310 310 310 309 308 307 307 306 305 304 303 303 303 303 303 303 302 301 300 301 301 302 302 302 302 302 302 302 302 302 302 301 301 301 301 300 300 299 299 298 298 297 297 296 295 295 294 294 294 293 292 292 291 291 291 292 291 291 291 290 290 290 290 290 290 289 288 287 285 284 283 282 282 282
305 305 306 307 307 306 305 306 307 308 308 308 308 308 308 307 306 305 304 303 302 301 301 301 301 301 301 301 301 301 300 301 301 302 302 302 302 302 302 302 302 302 302 301 301 301 301 300 300 300 299 299 298 297 297 296 295 295 294 294 294 294 294 294 294 294 294 293 292 292 291 291 291 290 289 289 288 287 286 285 284 283 282 282 281 280
308 308 307 308 307 306 305 306 306 306 305 305 305 305 305 304 303 302 302 301 300 300 299 299 299 299 299 300 300 300 300 301 301 301 302 302 302 302 302 302 302 302 302 301 301 301 301 301 300 300 299 299 298 297 297 296 295 295 295 295 295 295 296 296 295 295 294 293 292 291 291 290 289 288 287 286 285 284 283 282 282 281 281 280 279 278
309 308 308 309 308 305 304 304 305 305 304 303 303 303 303 301 300 299 299 299 299 299 298 299 298 298 298 299 300 300 301 301 301 302 302 302 302 302 301 302 302 302 301 301 301 301 301 301 300 299 299 298 297 297 296 296 296 296 296 296 296 296 296 296 295 294 294 293 292 291 290 289 289 287 286 285 284 282 281 280 280 279 279 278 277 276
308 307 308 309 308 305 304 304 304 304 304 302 302 301 301 299 299 298 299 298 298 298 298 298 298 298 298 299 300 301 301 301 301 302 301 301 301 301 301 301 301 301 301 301 300 300 300 300 299 299 298 298 297 297 296 296 297 297 297 297 297 296 296 295 295 294 293 292 291 290 289 288 288 286 285 284 283 282 281 279 279 278 277 276 275 274
307 307 307 306 305 304 304 304 305 305 304 303 302 301 300 299 298 298 298 298 298 297 297 297 297 298 299 300 301 302 301 301 301 301 301 300 300 300 300 300 300 300 300 300 300 300 300 299 299 299 298 297 297 297 297 297 298 297 297 297 297 296 296 295 294 293 292 291 291 290 289 288 287 286 285 284 283 281 280 279 278 277 277 275 274 273
305 306 306 305 303 303 304 304 304 305 304 303 302 301 300 299 298 298 297 297 297 297 298 298 299 301 302 302 302 302 302 301 301 301 300 299 299 299 299 299 299 300 300 300 300 299 299 299 298 298 298 298 298 298 298 298 298 298 297 297 297 296 296 295 294 293 292 291 291 290 289 288 287 286 285 283 282 281 280 279 278 277 276 275 274 273
304 306 306 306 306 305 304 303 303 303 302 301 301 301 301 300 299 298 297 298 299 300 301 302 303 303 303 303 303 303 302 302 301 301 300 300 299 299 299 299 299 299 299 299 299 299 299 298 298 298 298 298 298 298 298 298 298 298 297 297 297 296 295 295 295 294 293 292 291 290 289 287 287 286 284 283 283 282 281 280 279 277 276 275 274 273
303 306 306 306 306 305 304 303 303 302 300 297 296 297 299 300 300 300 301 302 304 304 305 306 306 305 304 304 303 303 302 301 300 300 300 299 299 298 298 298 298 298 298 298 298 298 298 298 298 298 298 298 298 298 298 298 298 298 297 297 297 296 295 295 294 294 293 292 291 290 288 287 286 286 285 284 283 282 281 280 279 278 276 275 274 273
303 304 304 303 302 300 299 300 301 300 298 295 293 292 293 296 300 304 307 307 308 308 308 307 307 306 306 305 304 304 302 301 299 298 297 297 296 296 297 297 297 297 297 298 298 298 298 298 298 298 298 298 298 298 298 298 297 297 297 297 296 295 295 294 294 293 292 291 290 289 288 287 287 286 285 284 283 282 281 280 279 278 277 276 275 274
303 302 301 300 299 296 293 293 295 297 297 296 295 294 294 299 305 309 311 311 311 310 309 308 307 306 306 306 305 304 303 301 299 298 297 297 296 296 296 295 295 296 297 297 298 298 298 298 298 298 298 298 297 298 298 298 297 297 296 296 295 294 294 293 293 292 291 290 289 289 288 288 287 286 285 284 284 283 282 281 280 279 278 277 275 274
300 299 296 295 295 296 293 292 293 296 300 304 306 307 307 309 311 312 311 310 309 309 309 308 306 305 304 304 304 303 302 300 299 298 298 298 298 298 298 297 297 298 298 298 298 298 298 298 298 298 298 297 297 297 297 297 297 296 295 294 294 293 293 292 291 290 290 289 289 289 289 288 287 286 286 285 284 284 283 282 281 280 279 278 277 275
294 293 292 293 294 296 297 298 302 306 309 312 313 312 312 312 312 310 307 305 305 307 307 307 306 304 303 302 301 301 300 299 298 298 298 297 298 299 299 300 300 300 300 300 299 298 298 299 299 298 298 297 297 297 297 296 295 295 294 294 293 293 292 291 291 290 290 290 290 290 289 288 288 287 286 286 285 284 283 282 281 280 280 279 278 277
289 290 294 296 299 301 303 306 308 311 311 311 310 309 308 309 309 308 306 304 304 305 306 305 304 303 303 302 301 299 299 298 298 298 297 297 297 299 300 300 300 300 300 300 299 298 298 299 299 298 297 297 297 296 296 296 295 295 294 294 293 293 292 292 291 291 291 291 290 290 289 289 288 287 286 285 285 284 283 282 281 280 279 278 278 277
289 296 301 303 304 305 306 308 308 308 307 307 307 307 307 307 307 306 305 304 304 306 306 304 303 302 302 302 302 302 300 299 299 299 298 297 297 299 301 301 301 300 299 298 297 297 297 298 297 297 297 297 297 297 296 296 295 295 294 294 294 293 293 292 292 291 291 290 290 290 289 289 288 287 287 286 285 284 283 282 281 280 279 278 277 276
297 304 304 304 303 303 304 305 305 305 305 305 306 306 306 306 305 305 304 303 304 305 305 304 303 303 303 303 304 305 304 303 302 301 300 298 298 300 302 301 300 299 298 297 296 296 297 297 296 296 296 296 296 296 295 295 294 294 294 294 293 293 293 292 292 291 291 290 290 289 289 289 288 288 287 287 286 285 284 283 281 280 279 278 276 275
305 306 304 302 301 301 302 303 302 302 303 304 304 303 303 301 301 301 300 299 300 300 300 300 300 302 303 304 305 307 308 308 306 303 301 299 299 300 301 300 299 298 297 295 294 294 295 295 295 295 295 295 295 295 294 294 294 294 293 293 293 293 293 292 292 291 291 290 290 290 289 289 289 288 288 287 286 285 285 283 282 280 279 278 276 275
305 303 301 299 299 300 302 302 302 302 302 302 302 301 300 298 297 296 296 295 294 293 293 293 293 294 298 301 304 306 310 311 309 306 302 299 299 300 301 300 297 295 294 293 293 293 294 294 294 294 294 294 294 294 293 293 293 293 293 293 293 293 293 293 292 292 291 291 291 290 290 290 289 289 288 288 287 287 286 284 283 281 279 278 276 275
301 299 298 297 297 298 299 299 300 300 300 299 299 299 297 296 294 293 291 290 289 287 287 288 289 291 293 295 300 304 309 310 309 305 302 299 298 299 301 299 297 294 292 291 291 292 293 293 293 293 293 293 293 293 293 293 292 292 292 292 292 292 293 292 292 292 292 291 291 291 290 290 290 289 289 288 288 287 286 284 283 281 279 278 277 276
296 294 293 295 296 296 296 295 295 296 296 295 295 294 293 293 292 290 289 287 286 286 285 285 288 292 295 297 300 303 307 309 307 303 300 298 297 298 300 299 296 293 292 290 291 291 292 292 292 293 293 293 293 293 293 293 292 292 292 292 292 292 292 292 292 292 292 292 292 291 291 290 290 289 288 287 286 286 285 284 283 282 281 279 278 277
292 291 291 292 293 293 292 292 292 292 292 292 291 289 288 289 288 288 288 288 289 289 291 291 294 297 300 300 300 302 304 306 305 302 299 297 296 297 298 297 295 292 291 290 291 291 291 292 292 292 292 292 292 292 292 292 292 291 291 291 291 291 292 292 292 292 292 291 291 291 290 290 289 288 287 287 286 286 285 284 283 283 282 281 279 278
288 289 290 290 289 288 288 289 290 290 289 288 285 283 283 283 284 286 289 293 297 300 301 300 299 299 299 298 297 298 301 302 301 298 298 295 294 295 297 297 294 292 290 290 291 292 292 291 291 291 291 291 291 291 291 291 291 291 291 291 291 291 291 291 291 291 291 291 290 290 290 289 289 288 288 288 288 288 287 286 285 284 283 282 280 279
285 286 288 289 287 286 285 286 287 287 286 283 280 277 276 277 281 287 295 301 304 304 302 300 298 297 296 295 296 297 298 299 297 295 293 290 291 294 297 297 295 292 290 290 292 293 292 291 290 290 290 290 290 290 291 291 290 290 291 291 291 291 291 291 291 291 290 290 290 290 290 289 289 289 289 289 289 288 288 287 285 284 283 282 281 280
286 286 287 287 286 285 284 283 284 286 286 285 283 283 284 289 296 302 305 305 304 302 301 300 299 298 297 297 297 297 298 299 298 295 290 287 288 292 296 297 295 292 291 291 292 293 293 291 290 290 290 290 290 290 290 290 290 290 291 291 291 291 290 290 290 290 290 290 290 290 290 290 290 290 290 289 289 288 287 286 285 284 283 282 281 281
288 287 287 286 287 287 287 288 290 292 295 299 304 310 313 312 309 307 304 303 302 301 301 300 299 298 298 300 299 299 299 300 299 295 290 287 289 291 294 295 294 292 292 292 294 294 293 292 291 291 290 290 290 289 290 290 290 290 291 291 291 290 290 290 290 290 290 290 290 290 290 290 290 289 289 288 288 287 287 286 285 284 283 283 282 281
289 289 288 289 291 292 293 295 297 300 302 306 309 311 311 311 309 307 303 302 302 303 303 301 298 297 299 300 299 298 300 302 300 296 290 289 290 291 293 294 293 292 292 294 295 295 294 293 292 292 291 290 289 289 289 289 289 290 290 290 290 290 290 290 290 290 290 290 290 290 290 290 289 289 288 288 288 287 286 286 285 284 284 284 283 283
291 291 292 293 295 296 297 298 299 300 301 303 304 305 307 308 307 305 301 301 303 305 304 300 298 298 299 298 297 297 300 301 300 297 293 290 289 289 292 294 294 294 294 295 295 295 294 292 292 291 290 289 289 289 289 289 289 290 290 290 290 290 290 290 290 290 290 290 290 290 289 289 289 288 288 288 287 286 286 286 285 285 285 285 285 284
296 296 297 298 298 299 300 301 301 301 301 301 302 303 304 304 302 299 297 300 302 302 298 295 294 295 296 296 296 297 298 298 297 296 295 292 288 287 291 295 296 296 296 296 296 295 293 290 289 289 288 288 289 289 290 290 290 290 290 290 290 290 290 290 291 290 290 290 290 289 289 289 289 288 288 287 287 286 286 286 286 287 287 286 285 283
305 304 303 302 302 302 302 302 302 302 302 302 302 301 301 298 295 293 294 296 297 295 291 289 289 290 292 294 296 297 296 295 295 297 299 296 289 288 292 296 297 297 298 299 299 298 294 291 289 289 289 289 290 290 291 291 291 291 291 291 291 290 290 290 290 290 290 290 290 289 289 288 288 288 288 287 287 287 287 287 287 287 287 286 284 283
312 310 309 308 308 308 307 306 305 304 302 301 300 299 297 293 289 287 288 289 289 286 285 286 287 288 291 295 297 297 295 294 295 299 303 300 293 291 295 296 297 297 299 300 301 299 296 295 293 292 291 292 292 292 292 292 292 291 291 291 291 290 290 290 290 290 290 290 289 289 288 288 288 287 287 287 287 286 286 286 287 287 286 285 283 282
314 314 313 313 313 313 311 309 306 304 302 301 299 297 295 291 287 284 284 284 282 280 281 284 285 287 290 293 295 295 292 293 296 301 303 299 292 291 294 295 295 296 297 297 297 299 299 299 298 296 295 294 293 292 292 292 292 291 291 291 290 290 290 290 290 290 290 289 289 288 288 287 287 287 287 286 286 286 286 285 285 285 285 283 282 280
315 315 315 314 314 312 310 307 305 304 303 302 300 298 295 292 287 284 283 281 279 278 279 281 284 285 286 285 283 280 284 289 294 298 300 295 291 290 292 292 293 294 294 292 289 287 294 297 299 298 297 295 293 292 292 292 291 291 291 290 290 289 290 290 291 290 289 289 289 288 288 287 286 286 285 285 285 284 284 284 284 283 282 281 280 278
315 315 314 312 310 308 306 305 305 304 303 303 301 300 298 294 291 287 284 282 280 279 279 280 282 284 284 282 280 279 282 285 290 295 297 294 291 291 292 292 292 292 293 291 288 285 284 286 293 296 296 295 293 292 292 291 291 290 289 289 288 288 289 290 290 289 289 289 289 288 287 287 286 285 284 283 283 283 282 282 281 280 279 278 277 275
315 313 311 309 307 306 305 305 305 304 303 303 302 301 299 297 294 291 289 286 284 282 280 280 280 282 283 284 283 282 283 285 288 292 295 293 290 290 291 291 291 292 293 292 290 288 286 286 289 293 295 295 294 293 291 291 291 290 289 288 287 287 288 289 289 289 288 288 288 287 286 286 285 284 283 283 282 281 280 280 279 278 276 274 273 272
313 310 308 307 307 307 307 307 306 305 305 303 303 302 301 299 297 295 293 290 288 286 283 280 279 279 280 281 282 283 284 286 289 292 293 291 288 288 289 289 290 291 291 291 291 291 289 288 289 291 293 295 295 294 292 292 291 291 289 288 287 287 287 288 288 288 287 287 286 285 285 284 284 283 283 282 281 281 280 280 279 278 276 274 272 272
309 308 308 308 308 308 308 307 307 307 307 306 305 304 303 302 300 298 296 294 292 289 286 283 280 278 276 276 276 278 281 284 288 290 290 288 286 286 286 287 288 289 288 288 288 289 289 289 290 291 291 293 294 295 295 294 294 293 291 290 288 287 287 287 286 286 286 285 284 284 283 283 282 282 282 282 281 281 281 281 280 279 277 275 274 272
307 307 308 308 308 308 307 307 308 308 308 307 307 306 305 304 302 300 298 296 294 292 289 286 283 279 277 275 274 275 278 282 285 286 286 285 284 282 282 283 285 285 284 284 285 286 287 289 290 291 291 289 290 293 296 297 297 294 292 291 290 289 288 287 286 285 284 282 281 281 282 282 281 281 281 281 281 281 281 280 279 278 277 276 274 273
307 307 308 308 309 308 308 308 308 308 308 307 307 306 306 304 303 301 299 296 294 293 291 288 286 283 282 279 278 278 279 281 282 284 284 284 282 280 279 280 281 281 280 279 281 283 285 287 288 289 290 289 289 290 293 295 295 294 293 292 291 290 288 287 286 285 283 282 282 282 282 281 281 281 280 280 280 280 279 278 277 276 276 275 274 273
307 307 307 308 309 308 307 307 307 307 307 306 306 305 304 303 303 301 299 297 295 293 292 290 288 286 286 284 283 282 282 282 282 283 284 284 282 280 278 278 279 279 279 278 278 279 280 281 282 284 288 290 290 291 292 292 292 292 293 294 293 291 289 288 287 286 284 283 283 282 282 281 281 280 279 279 278 277 276 276 276 276 276 274 274 274
307 306 307 307 308 307 306 306 305 306 306 306 305 305 304 303 303 302 301 299 297 296 295 293 291 290 289 287 286 285 284 284 285 285 285 285 283 281 278 276 277 278 278 278 277 276 276 277 279 281 283 285 288 290 290 290 289 290 292 293 293 291 291 290 289 287 285 283 281 281 281 281 281 279 278 277 275 275 274 274 275 275 274 272 271 272
308 306 306 307 307 307 306 306 306 306 306 306 305 305 304 304 304 303 303 302 301 300 299 298 297 295 294 292 290 288 287 287 287 287 287 287 286 285 281 278 276 276 277 277 276 275 275 275 277 279 281 282 283 285 286 287 287 289 290 289 288 289 290 290 289 286 284 283 281 280 280 281 281 279 278 276 275 273 273 272 272 272 272 270 268 267
307 306 306 307 307 307 307 307 307 307 307 306 305 304 303 303 303 303 303 303 302 302 302 301 300 298 298 297 295 293 292 291 290 290 289 289 289 287 284 281 278 277 276 276 275 275 274 274 275 276 278 279 281 283 285 286 286 287 287 285 286 288 290 289 288 286 285 283 282 282 281 280 280 279 277 276 275 274 273 272 271 270 270 269 267 265
305 305 305 306 307 307 307 308 308 308 308 307 305 303 303 303 302 302 302 301 301 301 302 301 300 298 297 298 298 298 297 295 294 293 292 292 291 290 288 285 283 280 277 275 274 275 275 275 274 274 275 277 278 280 283 285 286 286 286 284 285 287 288 288 288 288 287 284 283 281 280 279 279 278 277 276 275 275 273 272 270 269 268 267 266 265
303 303 305 306 307 308 309 309 309 309 308 306 305 303 303 303 302 301 301 299 299 299 300 300 299 298 296 296 298 300 301 301 300 298 296 295 294 293 291 288 286 283 279 274 273 275 277 277 277 276 277 277 277 277 279 281 283 284 284 284 283 281 280 282 286 287 287 285 283 281 280 278 278 279 277 276 275 274 273 272 270 269 267 266 264 264
303 305 306 308 309 310 310 309 309 308 307 305 303 303 304 303 303 302 300 299 298 298 298 299 299 298 297 298 299 301 303 304 304 303 302 300 299 296 293 291 287 284 280 275 272 271 273 275 278 279 279 278 276 275 276 278 280 281 282 283 282 280 278 280 282 283 283 283 282 281 280 279 278 278 277 277 276 274 272 270 269 267 267 265 263 262
305 306 308 309 310 310 309 309 309 308 307 305 303 303 304 304 303 302 300 298 297 297 298 298 297 295 295 297 300 302 303 304 306 307 306 305 304 301 298 294 290 287 283 279 276 273 270 271 274 278 280 279 278 277 275 276 277 279 280 281 282 282 281 281 281 280 280 280 280 281 281 280 278 276 275 276 276 276 274 271 269 268 267 266 264 263
307 308 309 310 310 310 309 309 309 308 307 305 304 304 304 304 304 303 302 300 298 297 298 299 297 293 292 294 297 299 300 302 304 306 306 307 307 305 303 300 296 292 288 283 280 277 274 272 271 272 274 276 278 278 278 277 277 277 278 280 281 281 281 280 280 280 279 279 278 279 280 280 278 277 275 276 277 277 277 276 274 271 269 268 266 264
309 309 309 310 310 310 309 309 309 308 307 305 305 305 306 306 305 304 302 302 301 299 299 299 297 295 293 293 295 296 297 298 300 302 303 305 306 306 305 304 302 298 294 290 286 282 279 276 273 271 269 269 271 274 277 278 277 276 276 278 279 279 278 278 280 281 280 278 276 276 276 276 275 275 277 279 280 280 280 279 277 275 272 269 267 265
309 309 309 309 309 309 309 309 308 307 306 305 305 306 307 307 306 304 302 302 301 299 298 296 295 295 295 295 295 296 297 298 298 299 300 301 303 304 304 304 303 302 300 297 294 290 286 283 278 273 268 264 264 267 271 274 275 276 276 277 276 276 276 277 280 281 280 279 278 277 276 275 275 275 277 279 281 282 282 281 279 277 273 270 267 265
310 310 310 309 308 307 307 307 307 306 304 305 305 305 306 307 307 306 304 303 301 299 297 295 294 294 295 295 296 297 298 297 297 297 298 300 301 302 301 302 302 301 301 300 299 297 295 292 288 283 276 267 262 262 265 269 273 276 277 276 276 275 276 277 280 281 281 281 281 281 280 280 279 277 277 278 279 281 281 280 279 277 275 271 268 266
310 310 310 309 307 306 305 305 305 304 303 303 304 304 304 305 306 307 306 305 303 300 298 297 295 294 294 295 295 296 297 297 296 296 297 299 300 299 298 298 299 299 299 300 300 300 300 298 295 293 289 282 273 265 263 267 271 274 276 277 278 278 278 278 280 282 282 283 284 284 283 282 281 279 277 275 276 278 280 280 280 278 277 274 270 268